Regional Weather Roundup
Issued by NWS

Home | Current Version | Previous Version | Text Only | Print | Product List | Glossary On
Versions: 1 2 3 4 5 6 7 8 9 10 11 12 13 14 15 16 17 18 19 20 21 22 23 24 25 26 27 28 29 30 31 32 33 34 35 36 37 38 39 40 41 42 43 44 45 46 47 48 49 50
000
ASCA44 KEWX 260220
RWRMX

LATIN AMERICA AND CARIBBEAN REGIONAL WEATHER ROUNDUP
NATIONAL WEATHER SERVICE AUSTIN/SAN ANTONIO TX
900 PM CDT MON JUL 25 2016

NOTE: "FAIR" INDICATED FEW OR NO CLOUDS BELOW 12,000 FEET WITH NO
SIGNIFICANT WEATHER AND/OR OBSTRUCTIONS TO VISIBILITY.

BAJA CALIFORNIA

CITY           SKY/WX    TMP DP  RH WIND       PRES   REMARKS
LORETO           N/A    N/A N/A N/A MISG        N/A
LA PAZ         MOCLDY    82  72  69 SW7       29.85
MEXICALI       CLEAR    102  59  24 SE14      29.72  HX 102
S.J. DEL CABO  PTCLDY    88  64  45 SW5       29.83R
TIJUANA        PTCLDY    75  61  60 W9        29.91S

NORTHWESTERN MEXICO

CITY           SKY/WX    TMP DP  RH WIND       PRES   REMARKS
CULIACAN       MOCLDY    90  77  66 SW8       29.84  HX 102
DURANGO        CLOUDY    70  54  56 S9        30.21
GUAYMAS        PTCLDY    90  81  74 SW10      29.73  HX 108
HERMOSILLO     PTCLDY    95  72  46 S16       29.81R HX 103
CD. JUAREZ     PTCLDY    97  50  20 E13       29.93  HX  94
LOS MOCHIS     PTCLDY    86  73  66 SW9       29.82R HX  93
OBREGON        MOCLDY    91  70  49 W14       29.78  HX  97

NORTHEASTERN MEXICO

CITY           SKY/WX    TMP DP  RH WIND       PRES   REMARKS
CHIHUAHUA      MOCLDY    82  52  34 CALM      30.00
MATAMOROS      PTCLDY    86  77  74 SE13      29.87  HX  97
MONCLOVA         N/A    N/A N/A N/A MISG        N/A
MONTERREY      MOCLDY    93  55  27 E7        29.83S HX  91
NUEVO LAREDO     N/A    N/A N/A N/A MISG        N/A
PIEDRAS NEGRAS   N/A    N/A N/A N/A MISG        N/A
REYNOSA        MOCLDY    84  70  61 SE14      29.86
SALTILLO       MOCLDY    81  61  50 NE14      30.12S
TORREON        MOCLDY    93  54  26 NE12      29.92R HX  91
CD. VICTORIA     N/A    N/A N/A N/A MISG        N/A

WESTERN MEXICO

CITY           SKY/WX    TMP DP  RH WIND       PRES   REMARKS
AGUASCALIENTES PTCLDY    72  54  53 S7        30.15
COLIMA         MOCLDY    75  72  88 W8        29.99R
DEL BAJIO      PTCLDY    75  59  57 NW5       30.19R
GUADALAJARA    MOCLDY    73  59  60 CALM      30.11
MANZANILLO     PTCLDY    86  79  79 CALM      29.79R HX  99
MAZATLAN       MOCLDY    86  77  74 NW10      29.82R HX  97
P. VALLARTA    CLOUDY    84  77  79 CALM      29.84R HX  94
URUAPAN          N/A    N/A N/A N/A MISG        N/A
ZACATECAS      MOCLDY    66  50  55 NW8       30.21R

CENTRAL MEXICO

CITY           SKY/WX    TMP DP  RH WIND       PRES   REMARKS
CUERNAVACA       N/A    N/A N/A N/A MISG        N/A
MEXICO CITY    TSTM      59  55  88 S6        30.32R
MORELIA        LGT RAIN  66  61  82 SW8       30.17
POZA RICA      PTCLDY    84  77  79 SE7       29.93R HX  94
PUEBLA         MOCLDY    57  55  94 N6        30.30R
QUERETARO      MOCLDY    72  54  53 E16       30.22R
S. LUIS POTOSI PTCLDY    73  48  40 E7        30.18R
TAMPICO        MOCLDY    84  75  74 E7        29.88R HX  92
TOLUCA         TSTM      57  55  94 NW12      30.34R

SOUTHERN MEXICO

CITY           SKY/WX    TMP DP  RH WIND       PRES   REMARKS
ACAPULCO       MOCLDY    84  75  74 NE2       29.86R HX  92
B. DE HUATULCO   N/A    N/A N/A N/A MISG        N/A
OAXACA         MOCLDY    70  57  64 SE6       30.18R
P. ESCONDIDO     N/A    N/A N/A N/A MISG        N/A
VERACRUZ       MOCLDY    82  77  83 NE6       29.88R HX  91
ZIHUATANEJO    MOCLDY    82  73  74 E5        29.87R

YUCATAN PENINSULA

CITY           SKY/WX    TMP DP  RH WIND       PRES   REMARKS
CAMPECHE       MOCLDY    82  84 100 E6        29.89R HX  97
CANCUN         MOCLDY    82  81  94 NE2       29.97R HX  95
CHETUMAL       MOCLDY    86  77  74 CALM      29.93  HX  97
CD. DEL CARMEN CLOUDY    86  73  66 SE9       29.90  HX  93
COZUMEL        PTCLDY    79  77  94 E3        29.97R
MERIDA         PTCLDY    84  72  65 NE9       29.95R
MINATITLAN       N/A    N/A N/A N/A MISG        N/A
TAPACHULA      PTCLDY    84  75  74 CALM      29.83  HX  92
TUX. GUTIERREZ PTCLDY    77  66  69 W8        29.91R
VILLAHERMOSA   PTCLDY    84  75  74 NE6       29.87R HX  92

CENTRAL AMERICA

CITY           SKY/WX    TMP DP  RH WIND       PRES   REMARKS
BELIZE CITY    PTCLDY    84  79  84 E7        29.94R HX  96

CARIBBEAN

CITY           SKY/WX    TMP DP  RH WIND       PRES   REMARKS
ARUBA          PTCLDY    82  75  78 E17       29.89S
CURACAO        PTCLDY    82  75  78 E14       29.94R
KINGSTON       PTCLDY    86  72  62 SE15      29.94R HX  92
SAN JUAN       PTCLDY    82  75  78 NE10      30.04R
SANTO DOMINGO  TSTM      77  75  94 N5        30.00S
ST. CROIX      MOCLDY    81  75  83 NE7       30.03
ST. MAARTEN    PTCLDY    81  79  94 E10       30.00S THUNDER
ST. THOMAS     PTCLDY    84  77  79 NE9G18    30.02  HX  94

$$





USA.gov is the U.S. government's official web portal to all federal, state and local government web resources and services.